WA6MHA-11 Weather Reports


Display with metric or nautical units.
time (UTC)temp
F
wind
direction
speed
MPH
gust
MPH
rain 1hr
in
rain 24hr
in
rain mn
in
humidity
%
barometer
mb
20260507204556 88 195 7.0 18.0 0.00 0.00 0.00 25 1015.7
20260507204154 89 137 15.0 15.0 0.00 0.00 0.00 25 1015.8
20260507203352 91 195 9.0 12.0 0.00 0.00 0.00 25 1015.9
20260507202950 89 153 6.0 10.0 0.00 0.00 0.00 25 1015.9
20260507202551 89 162 2.0 12.0 0.00 0.00 0.00 25 1015.9
20260507201746 88 166 3.0 17.0 0.00 0.00 0.00 25 1015.9
20260507200543 89 177 8.0 8.0 0.00 0.00 0.00 25 1016.2
20260507195740 87 135 12.0 17.0 0.00 0.00 0.00 25 1016.2
20260507195341 87 170 4.0 9.0 0.00 0.00 0.00 25 1016.2
20260507194544 85 128 8.0 11.0 0.00 0.00 0.00 25 1016.3
20260507193734 85 81 6.0 15.0 0.00 0.00 0.00 25 1016.4
20260507193333 85 155 11.0 18.0 0.00 0.00 0.00 25 1016.4
20260507192931 85 121 4.0 16.0 0.00 0.00 0.00 26 1016.4
20260507192530 85 101 12.0 12.0 0.00 0.00 0.00 25 1016.5
20260507190125 85 187 3.0 20.0 0.00 0.00 0.00 25 1016.6
20260507185721 84 135 8.0 13.0 0.00 0.00 0.00 25 1016.6
20260507185324 83 117 4.0 13.0 0.00 0.00 0.00 25 1016.7
20260507184517 83 121 14.0 17.0 0.00 0.00 0.00 26 1016.7
20260507184115 84 83 1.0 15.0 0.00 0.00 0.00 26 1016.8
20260507183313 84 75 6.0 13.0 0.00 0.00 0.00 25 1016.8
20260507182912 82 135 12.0 12.0 0.00 0.00 0.00 25 1016.9
20260507182511 82 81 14.0 14.0 0.00 0.00 0.00 26 1016.8
20260507182111 85 70 8.0 10.0 0.00 0.00 0.00 26 1016.9
20260507175702 82 72 5.0 10.0 0.00 0.00 0.00 26 1016.9
20260507175301 81 67 9.0 13.0 0.00 0.00 0.00 26 1017.0
20260507173256 82 135 2.0 5.0 0.00 0.00 0.00 27 1017.0
20260507172852 81 135 2.0 12.0 0.00 0.00 0.00 28 1017.1
20260507172451 80 85 2.0 7.0 0.00 0.00 0.00 28 1017.2
20260507172053 80 63 2.0 11.0 0.00 0.00 0.00 29 1017.3
20260507171249 79 126 1.0 6.0 0.00 0.00 0.00 29 1017.2
20260507170847 78 132 6.0 8.0 0.00 0.00 0.00 30 1017.1
20260507165647 77 135 3.0 4.0 0.00 0.00 0.00 31 1017.2
20260507165241 76 119 3.0 7.0 0.00 0.00 0.00 31 1017.2
20260507164840 76 72 7.0 7.0 0.00 0.00 0.00 31 1017.2
20260507164439 76 135 6.0 8.0 0.00 0.00 0.00 32 1017.1
20260507164038 76 97 1.0 6.0 0.00 0.00 0.00 32 1017.3
20260507163635 76 50 4.0 4.0 0.00 0.00 0.00 33 1017.3
20260507163234 76 40 3.0 6.0 0.00 0.00 0.00 33 1017.3
20260507162833 76 123 4.0 6.0 0.00 0.00 0.00 34 1017.2
20260507162031 76 87 5.0 7.0 0.00 0.00 0.00 35 1017.2
20260507161629 76 130 6.0 7.0 0.00 0.00 0.00 36 1017.3
20260507161228 77 137 3.0 7.0 0.00 0.00 0.00 37 1017.2
20260507160827 77 166 1.0 7.0 0.00 0.00 0.00 37 1017.3
20260507160429 76 135 6.0 6.0 0.00 0.00 0.00 38 1017.3
20260507160025 76 51 1.0 4.0 0.00 0.00 0.00 39 1017.3
20260507155624 76 101 1.0 3.0 0.00 0.00 0.00 40 1017.3
20260507155221 75 105 2.0 4.0 0.00 0.00 0.00 40 1017.3
20260507154823 75 244 0.0 2.0 0.00 0.00 0.00 41 1017.4
20260507153617 73 83 1.0 2.0 0.00 0.00 0.00 44 1017.4
20260507153215 72 45 3.0 3.0 0.00 0.00 0.00 44 1017.6
20260507152813 72 337 1.0 3.0 0.00 0.00 0.00 45 1017.5
20260507152412 72 83 3.0 3.0 0.00 0.00 0.00 46 1017.4
20260507152011 72 85 0.0 2.0 0.00 0.00 0.00 47 1017.5
20260507151610 71 78 1.0 1.0 0.00 0.00 0.00 48 1017.5
20260507150811 70 135 0.0 1.0 0.00 0.00 0.00 50 1017.6
20260507150406 69 227 0.0 1.0 0.00 0.00 0.00 50 1017.6
20260507150006 68 36 0.0 1.0 0.00 0.00 0.00 51 1017.6
20260507145604 68 335 0.0 1.0 0.00 0.00 0.00 52 1017.5
20260507145202 67 330 0.0 0.0 0.00 0.00 0.00 52 1017.6
20260507144802 67 229 0.0 0.0 0.00 0.00 0.00 53 1017.6
20260507143958 65 180 0.0 0.0 0.00 0.00 0.00 53 1017.7
20260507143156 64 180 0.0 0.0 0.00 0.00 0.00 54 1017.6
20260507142755 63 180 0.0 0.0 0.00 0.00 0.00 55 1017.5
20260507142354 62 180 0.0 0.0 0.00 0.00 0.00 55 1017.5
20260507141550 59 45 0.0 0.0 0.00 0.00 0.00 56 1017.5
20260507141149 59 42 0.0 0.0 0.00 0.00 0.00 56 1017.4
20260507140748 58 45 0.0 0.0 0.00 0.00 0.00 56 1017.4
20260507135946 57 85 0.0 0.0 0.00 0.00 0.00 57 1017.4
20260507135545 56 135 0.0 0.0 0.00 0.00 0.00 57 1017.3
20260507135143 55 270 0.0 0.0 0.00 0.00 0.00 57 1017.3
20260507134742 54 270 0.0 0.0 0.00 0.00 0.00 57 1017.3
20260507134340 53 270 0.0 0.0 0.00 0.00 0.00 57 1017.3
20260507133940 52 274 0.0 0.0 0.00 0.00 0.00 57 1017.1
20260507133538 52 270 0.0 0.0 0.00 0.00 0.00 58 1017.1
20260507133138 51 274 0.0 0.0 0.00 0.00 0.00 57 1017.1
20260507132735 50 279 0.0 0.0 0.00 0.00 0.00 57 1017.1
20260507132334 50 233 0.0 0.0 0.00 0.00 0.00 57 1017.0
20260507131933 49 274 0.0 0.0 0.00 0.00 0.00 57 1017.2
20260507131532 49 227 0.0 0.0 0.00 0.00 0.00 57 1017.1
20260507131130 49 232 0.0 0.0 0.00 0.00 0.00 57 1017.0
20260507130729 49 270 0.0 0.0 0.00 0.00 0.00 57 1017.0
20260507130327 49 45 0.0 0.0 0.00 0.00 0.00 57 1017.0
20260507125926 49 279 0.0 0.0 0.00 0.00 0.00 57 1017.0
20260507125124 49 301 0.0 0.0 0.00 0.00 0.00 57 1017.0
20260507124723 49 315 0.0 0.0 0.00 0.00 0.00 57 1016.9
20260507124322 49 310 0.0 1.0 0.00 0.00 0.00 57 1017.0
20260507123920 49 310 0.0 0.0 0.00 0.00 0.00 57 1016.9
20260507123519 49 310 0.0 0.0 0.00 0.00 0.00 56 1016.9
20260507123117 49 310 0.0 1.0 0.00 0.00 0.00 56 1016.9
20260507122716 49 330 1.0 1.0 0.00 0.00 0.00 56 1016.8
20260507122315 49 337 0.0 0.0 0.00 0.00 0.00 56 1016.8
20260507121915 49 306 0.0 0.0 0.00 0.00 0.00 56 1016.8
20260507121113 49 42 0.0 0.0 0.00 0.00 0.00 56 1016.9
20260507120710 49 42 0.0 0.0 0.00 0.00 0.00 56 1017.0
20260507120308 49 40 0.0 0.0 0.00 0.00 0.00 56 1016.9
20260507115507 49 45 0.0 0.0 0.00 0.00 0.00 56 1016.9
20260507115104 49 42 0.0 1.0 0.00 0.00 0.00 56 1016.9
20260507114302 50 184 1.0 1.0 0.00 0.00 0.00 56 1016.9
20260507113901 50 231 0.0 0.0 0.00 0.00 0.00 56 1017.0
20260507113501 50 184 0.0 0.0 0.00 0.00 0.00 56 1017.1
20260507113101 50 232 0.0 0.0 0.00 0.00 0.00 56 1017.1
20260507112258 50 270 1.0 1.0 0.00 0.00 0.00 56 1017.0
20260507111459 50 312 0.0 0.0 0.00 0.00 0.00 56 1017.0
20260507111052 50 306 0.0 0.0 0.00 0.00 0.00 56 1017.1
20260507110655 50 270 0.0 1.0 0.00 0.00 0.00 55 1017.2
20260507110249 50 270 0.0 0.0 0.00 0.00 0.00 55 1017.2
20260507105848 50 233 0.0 0.0 0.00 0.00 0.00 55 1017.2
20260507105047 50 42 0.0 0.0 0.00 0.00 0.00 55 1017.2
20260507104644 50 45 0.0 0.0 0.00 0.00 0.00 55 1017.2
20260507104243 51 45 0.0 0.0 0.00 0.00 0.00 55 1017.2
20260507103841 51 42 0.0 0.0 0.00 0.00 0.00 55 1017.2
20260507102638 51 319 0.0 0.0 0.00 0.00 0.00 55 1017.3
20260507101835 51 292 0.0 0.0 0.00 0.00 0.00 55 1017.4
20260507101433 51 283 0.0 0.0 0.00 0.00 0.00 55 1017.4
20260507101032 51 232 0.0 0.0 0.00 0.00 0.00 55 1017.4
20260507100230 52 306 0.0 0.0 0.00 0.00 0.00 55 1017.4
20260507095829 52 274 0.0 1.0 0.00 0.00 0.00 55 1017.4
20260507095428 51 292 0.0 0.0 0.00 0.00 0.00 54 1017.5
20260507094625 52 339 0.0 0.0 0.00 0.00 0.00 54 1017.5
20260507094223 52 279 0.0 0.0 0.00 0.00 0.00 54 1017.6
20260507093822 52 274 0.0 0.0 0.00 0.00 0.00 54 1017.7
20260507090612 52 274 0.0 0.0 0.00 0.00 0.00 54 1017.9
20260507090211 53 274 0.0 0.0 0.00 0.00 0.00 54 1018.0
20260507085809 53 288 0.0 0.0 0.00 0.00 0.00 53 1018.0
20260507085409 53 292 0.0 0.0 0.00 0.00 0.00 53 1018.0
20260507085007 53 351 0.0 2.0 0.00 0.00 0.00 53 1018.0
20260507084606 53 182 0.0 0.0 0.00 0.00 0.00 53 1018.1
20260507084205 53 274 0.0 1.0 0.00 0.00 0.00 53 1018.1
20260507083803 53 306 0.0 0.0 0.00 0.00 0.00 53 1018.2
20260507082954 53 186 0.0 0.0 0.00 0.00 0.00 53 1018.3
20260507081755 54 279 0.0 0.0 0.00 0.00 0.00 53 1018.3
20260507081349 54 235 0.0 1.0 0.00 0.00 0.00 52 1018.4
20260507081110 54 270 0.0 1.0 0.00 0.00 0.00 52 1018.4
20260507080948 54 270 0.0 1.0 0.00 0.00 0.00 52 1018.4
20260507080547 54 180 0.0 1.0 0.00 0.00 0.00 52 1018.4
20260507080147 54 274 0.0 1.0 0.00 0.00 0.00 52 1018.5
20260507075343 54 279 1.0 1.0 0.00 0.00 0.00 52 1018.4
20260507074541 55 315 0.0 0.0 0.00 0.00 0.00 52 1018.4
20260507074139 55 328 0.0 0.0 0.00 0.00 0.00 52 1018.5
20260507072937 55 229 0.0 0.0 0.00 0.00 0.00 51 1018.5
20260507072133 56 279 0.0 0.0 0.00 0.00 0.00 51 1018.6
20260507071731 56 288 0.0 0.0 0.00 0.00 0.00 51 1018.6
20260507070129 56 279 0.0 0.0 0.00 0.00 0.00 50 1018.5
20260507065727 56 274 0.0 0.0 0.00 0.00 0.00 50 1018.5
20260507064926 57 270 0.0 0.0 0.00 0.00 0.00 50 1018.4
20260507064521 57 274 0.0 0.0 0.00 0.00 0.00 50 1018.5
20260507064120 57 202 0.0 0.0 0.00 0.00 0.00 50 1018.5
20260507063718 57 182 0.0 0.0 0.00 0.00 0.00 50 1018.5
20260507063317 57 234 0.0 0.0 0.00 0.00 0.00 50 1018.6
20260507062515 57 292 0.0 0.0 0.00 0.00 0.00 49 1018.6
20260507062114 57 182 0.0 0.0 0.00 0.00 0.00 49 1018.6
20260507061713 57 232 0.0 0.0 0.00 0.00 0.00 49 1018.5
20260507061311 57 42 0.0 0.0 0.00 0.00 0.00 49 1018.4
20260507055709 58 78 1.0 1.0 0.00 0.00 0.00 48 1018.5
20260507055306 58 42 0.0 1.0 0.00 0.00 0.00 48 1018.5
20260507054903 58 78 0.0 0.0 0.00 0.00 0.00 48 1018.5
20260507054502 58 85 0.0 0.0 0.00 0.00 0.00 48 1018.5
20260507054100 58 81 1.0 1.0 0.00 0.00 0.00 48 1018.4
20260507053659 58 135 0.0 0.0 0.00 0.00 0.00 48 1018.5
20260507053258 58 103 0.0 1.0 0.00 0.00 0.00 48 1018.5
20260507052857 59 135 2.0 2.0 0.00 0.00 0.00 47 1018.5
20260507052455 59 137 2.0 2.0 0.00 0.00 0.00 47 1018.5
20260507052054 59 135 2.0 2.0 0.00 0.00 0.00 47 1018.5
20260507051653 59 135 1.0 2.0 0.00 0.00 0.00 47 1018.5
20260507051252 59 135 2.0 2.0 0.00 0.00 0.00 47 1018.5
20260507050850 59 135 1.0 2.0 0.00 0.00 0.00 47 1018.4
20260507050449 59 135 2.0 2.0 0.00 0.00 0.00 47 1018.5
20260507044846 60 85 1.0 2.0 0.00 0.00 0.00 46 1018.4
20260507044041 60 135 3.0 4.0 0.00 0.00 0.00 46 1018.3
20260507043239 60 135 2.0 3.0 0.00 0.00 0.00 45 1018.3
20260507042441 61 78 1.0 2.0 0.00 0.00 0.00 45 1018.2
20260507042036 61 130 2.0 2.0 0.00 0.00 0.00 45 1018.2
20260507041233 61 135 2.0 3.0 0.00 0.00 0.00 44 1018.2
20260507040832 61 135 3.0 3.0 0.00 0.00 0.00 44 1018.1
20260507040029 62 135 2.0 2.0 0.00 0.00 0.00 43 1018.0
20260507034824 62 121 2.0 2.0 0.00 0.00 0.00 43 1017.8
20260507034427 62 87 2.0 3.0 0.00 0.00 0.00 42 1017.9
20260507034022 63 83 3.0 3.0 0.00 0.00 0.00 42 1017.8
20260507033621 63 92 3.0 4.0 0.00 0.00 0.00 41 1017.8
20260507033222 63 85 3.0 4.0 0.00 0.00 0.00 41 1017.8
20260507032417 64 81 2.0 2.0 0.00 0.00 0.00 40 1017.6
20260507032015 64 132 2.0 3.0 0.00 0.00 0.00 40 1017.6
20260507031213 64 105 3.0 5.0 0.00 0.00 0.00 39 1017.4
20260507030812 65 130 4.0 4.0 0.00 0.00 0.00 39 1017.5
20260507030410 65 135 3.0 3.0 0.00 0.00 0.00 38 1017.5
20260507025207 66 112 4.0 4.0 0.00 0.00 0.00 37 1017.2
20260507024805 66 126 2.0 4.0 0.00 0.00 0.00 36 1017.2
20260507024405 66 112 4.0 6.0 0.00 0.00 0.00 36 1017.1
20260507024003 67 108 4.0 6.0 0.00 0.00 0.00 35 1017.1
20260507023601 67 110 4.0 7.0 0.00 0.00 0.00 35 1017.0
20260507023202 67 130 4.0 5.0 0.00 0.00 0.00 34 1016.9
20260507022804 68 132 3.0 11.0 0.00 0.00 0.00 34 1016.9
20260507022403 68 137 5.0 15.0 0.00 0.00 0.00 34 1016.8
20260507021957 68 132 12.0 15.0 0.00 0.00 0.00 33 1016.8
20260507021555 69 135 8.0 12.0 0.00 0.00 0.00 33 1016.7
20260507021153 69 135 6.0 10.0 0.00 0.00 0.00 32 1016.7
20260507020752 70 135 10.0 11.0 0.00 0.00 0.00 32 1016.7
20260507015950 71 135 7.0 10.0 0.00 0.00 0.00 31 1016.6
20260507015549 71 137 6.0 11.0 0.00 0.00 0.00 31 1016.5
20260507015153 72 135 8.0 10.0 0.00 0.00 0.00 31 1016.5
20260507014746 72 132 7.0 9.0 0.00 0.00 0.00 30 1016.5
20260507013943 73 135 9.0 9.0 0.00 0.00 0.00 30 1016.5
20260507013545 74 132 6.0 9.0 0.00 0.00 0.00 29 1016.5
20260507012339 77 135 7.0 9.0 0.00 0.00 0.00 29 1016.5
20260507010735 79 190 4.0 8.0 0.00 0.00 0.00 28 1016.5
20260507010332 79 191 6.0 7.0 0.00 0.00 0.00 28 1016.3
20260507005930 79 204 7.0 7.0 0.00 0.00 0.00 27 1016.4
20260507005529 79 22 2.0 12.0 0.00 0.00 0.00 27 1016.3
20260507005129 79 180 3.0 7.0 0.00 0.00 0.00 27 1016.4
20260507003925 79 185 4.0 10.0 0.00 0.00 0.00 27 1016.3
20260507003523 80 200 6.0 9.0 0.00 0.00 0.00 27 1016.3
20260507003121 80 184 1.0 8.0 0.00 0.00 0.00 26 1016.4
20260507002720 80 154 2.0 9.0 0.00 0.00 0.00 26 1016.4
20260507001923 81 191 4.0 8.0 0.00 0.00 0.00 26 1016.4
20260507001516 81 185 9.0 12.0 0.00 0.00 0.00 26 1016.3
20260507001116 81 230 3.0 9.0 0.00 0.00 0.00 26 1016.4
20260507000714 82 174 4.0 10.0 0.00 0.00 0.00 26 1016.3
20260507000314 81 172 5.0 10.0 0.00 0.00 0.00 25 1016.4
20260506235913 82 180 6.0 9.0 0.00 0.00 0.00 26 1016.2
20260506235543 82 182 2.0 6.0 0.00 0.00 0.00 25 1016.3
20260506235511 82 182 2.0 6.0 0.00 0.00 0.00 25 1016.3
20260506234707 82 150 3.0 10.0 0.00 0.00 0.00 25 1016.4
20260506233504 82 166 7.0 8.0 0.00 0.00 0.00 25 1016.3
20260506233103 82 139 6.0 8.0 0.00 0.00 0.00 25 1016.3
20260506232701 82 231 4.0 6.0 0.00 0.00 0.00 25 1016.3
20260506231858 80 128 3.0 9.0 0.00 0.00 0.00 25 1016.4
20260506231457 80 168 2.0 9.0 0.00 0.00 0.00 25 1016.4
20260506231056 81 135 8.0 11.0 0.00 0.00 0.00 24 1016.4
20260506230655 82 112 3.0 11.0 0.00 0.00 0.00 24 1016.4
20260506230254 82 155 8.0 9.0 0.00 0.00 0.00 24 1016.5
20260506225852 84 216 4.0 10.0 0.00 0.00 0.00 25 1016.5
20260506225049 85 151 1.0 7.0 0.00 0.00 0.00 24 1016.6
20260506224649 85 144 3.0 10.0 0.00 0.00 0.00 24 1016.5
20260506224249 84 172 4.0 9.0 0.00 0.00 0.00 24 1016.6
20260506223846 84 187 5.0 10.0 0.00 0.00 0.00 24 1016.7
20260506223444 84 139 8.0 11.0 0.00 0.00 0.00 24 1016.7
20260506222642 85 182 4.0 10.0 0.00 0.00 0.00 24 1017.0
20260506221839 85 120 3.0 10.0 0.00 0.00 0.00 24 1017.1
20260506221439 85 186 8.0 9.0 0.00 0.00 0.00 24 1017.0
20260506220635 83 200 4.0 9.0 0.00 0.00 0.00 24 1017.1
20260506220234 84 168 2.0 9.0 0.00 0.00 0.00 24 1017.1
20260506215032 85 160 5.0 9.0 0.00 0.00 0.00 25 1017.3
20260506214629 85 45 3.0 6.0 0.00 0.00 0.00 25 1017.3
20260506213827 85 177 7.0 8.0 0.00 0.00 0.00 25 1017.4
20260506213425 85 157 2.0 5.0 0.00 0.00 0.00 24 1017.5
20260506213024 85 210 2.0 7.0 0.00 0.00 0.00 24 1017.5
20260506212623 85 154 1.0 12.0 0.00 0.00 0.00 26 1017.6
20260506212221 85 157 5.0 8.0 0.00 0.00 0.00 26 1017.6
20260506211420 85 150 7.0 9.0 0.00 0.00 0.00 26 1017.6
20260506211017 85 209 1.0 7.0 0.00 0.00 0.00 26 1017.7
20260506210617 85 145 3.0 0.0 0.00 0.00 0.00 1017.7
20260506210217 85 207 6.0 8.0 0.00 0.00 0.00 26 1017.7
20260506205412 85 157 4.0 8.0 0.00 0.00 0.00 26 1017.8
20260506205011 85 0 3.0 9.0 0.00 0.00 0.00 26 1017.8